Time,TemperatureF,DewpointF,PressureIn,WindDirection,WindDirectionDegrees,WindSpeedMPH,WindSpeedGustMPH,Humidity,HourlyPrecipIn,Conditions,Clouds,dailyrainin,SoftwareType,DateUTC
2013-10-03 00:03:00,77.5,74.3,29.87,East,88,0.0,2.0,90,0.00,,,0.00,WeatherCatV1.21B27,2013-10-03 05:03:00,
2013-10-03 00:08:00,77.4,74.2,29.87,ESE,110,1.0,1.0,90,0.00,,,0.00,WeatherCatV1.21B27,2013-10-03 05:08:00,
2013-10-03 00:13:00,77.3,74.1,29.87,ESE,123,1.0,4.0,90,0.00,,,0.00,WeatherCatV1.21B27,2013-10-03 05:13:00,
2013-10-03 00:18:00,77.3,74.1,29.87,North,11,1.0,4.0,90,0.00,,,0.00,WeatherCatV1.21B27,2013-10-03 05:18:00,
2013-10-03 00:23:00,77.3,74.5,29.87,ESE,117,0.0,3.0,91,0.00,,,0.00,WeatherCatV1.21B27,2013-10-03 05:23:00,
2013-10-03 00:28:00,77.2,74.4,29.86,SSW,194,0.0,1.0,91,0.00,,,0.00,WeatherCatV1.21B27,2013-10-03 05:28:00,
2013-10-03 00:34:00,77.2,74.4,29.87,SSE,153,2.0,4.0,91,0.00,,,0.00,WeatherCatV1.21B27,2013-10-03 05:34:00,
2013-10-03 00:39:00,77.1,74.3,29.87,ESE,108,0.0,6.0,91,0.00,,,0.00,WeatherCatV1.21B27,2013-10-03 05:39:00,
2013-10-03 00:44:00,77.1,74.3,29.86,SSE,153,0.0,2.0,91,0.00,,,0.00,WeatherCatV1.21B27,2013-10-03 05:44:00,
2013-10-03 00:49:00,77.1,74.3,29.86,ESE,122,4.0,5.0,91,0.00,,,0.00,WeatherCatV1.21B27,2013-10-03 05:49:00,
2013-10-03 00:54:00,77.0,74.2,29.86,SE,128,0.0,4.0,91,0.00,,,0.00,WeatherCatV1.21B27,2013-10-03 05:54:00,
2013-10-03 00:59:00,76.9,74.4,29.86,SSW,213,1.0,2.0,92,0.00,,,0.00,WeatherCatV1.21B27,2013-10-03 05:59:00,
2013-10-03 01:04:00,76.9,74.4,29.86,SE,126,0.0,5.0,92,0.00,,,0.00,WeatherCatV1.21B27,2013-10-03 06:04:00,
2013-10-03 01:09:00,76.8,74.3,29.86,SSW,203,1.0,2.0,92,0.00,,,0.00,WeatherCatV1.21B27,2013-10-03 06:09:00,
2013-10-03 01:14:00,76.8,74.3,29.86,SE,135,0.0,5.0,92,0.00,,,0.00,WeatherCatV1.21B27,2013-10-03 06:14:00,
2013-10-03 01:19:00,76.7,74.2,29.86,East,97,0.0,2.0,92,0.00,,,0.00,WeatherCatV1.21B27,2013-10-03 06:19:00,
2013-10-03 01:24:00,76.7,74.2,29.86,South,169,0.0,1.0,92,0.00,,,0.00,WeatherCatV1.21B27,2013-10-03 06:24:00,
2013-10-03 01:29:00,76.8,74.3,29.86,SE,134,0.0,1.0,92,0.00,,,0.00,WeatherCatV1.21B27,2013-10-03 06:29:00,
2013-10-03 01:34:00,76.8,74.3,29.86,SSE,159,0.0,2.0,92,0.00,,,0.00,WeatherCatV1.21B27,2013-10-03 06:34:00,
2013-10-03 01:39:00,76.7,74.2,29.86,East,93,1.0,2.0,92,0.00,,,0.00,WeatherCatV1.21B27,2013-10-03 06:39:00,
2013-10-03 01:44:00,76.7,74.2,29.86,SSW,203,0.0,2.0,92,0.00,,,0.00,WeatherCatV1.21B27,2013-10-03 06:44:00,
2013-10-03 01:49:00,76.7,74.5,29.86,SW,215,0.0,0.0,93,0.00,,,0.00,WeatherCatV1.21B27,2013-10-03 06:49:00,
2013-10-03 01:54:00,76.7,74.5,29.86,SSE,166,1.0,1.0,93,0.00,,,0.00,WeatherCatV1.21B27,2013-10-03 06:54:00,
2013-10-03 01:59:00,76.7,74.5,29.86,SSE,152,0.0,2.0,93,0.00,,,0.00,WeatherCatV1.21B27,2013-10-03 06:59:00,
2013-10-03 02:04:00,76.7,74.5,29.86,ENE,76,0.0,5.0,93,0.00,,,0.00,WeatherCatV1.21B27,2013-10-03 07:04:00,
2013-10-03 02:09:00,76.7,74.5,29.86,East,80,0.0,2.0,93,0.00,,,0.00,WeatherCatV1.21B27,2013-10-03 07:09:00,
2013-10-03 02:14:00,76.7,74.5,29.86,SE,129,0.0,2.0,93,0.00,,,0.00,WeatherCatV1.21B27,2013-10-03 07:14:00,
2013-10-03 02:19:00,76.8,74.6,29.86,SE,129,0.0,1.0,93,0.00,,,0.00,WeatherCatV1.21B27,2013-10-03 07:19:00,
2013-10-03 02:24:00,76.8,74.6,29.86,SE,141,2.0,2.0,93,0.00,,,0.00,WeatherCatV1.21B27,2013-10-03 07:24:00,
2013-10-03 02:29:00,76.8,74.6,29.86,South,188,0.0,1.0,93,0.00,,,0.00,WeatherCatV1.21B27,2013-10-03 07:29:00,
2013-10-03 02:34:00,76.9,74.7,29.86,SSW,211,0.0,6.0,93,0.00,,,0.00,WeatherCatV1.21B27,2013-10-03 07:34:00,
2013-10-03 02:39:00,76.9,74.7,29.86,SSE,155,1.0,2.0,93,0.00,,,0.00,WeatherCatV1.21B27,2013-10-03 07:39:00,
2013-10-03 02:44:00,76.9,74.4,29.86,SE,130,0.0,1.0,92,0.00,,,0.00,WeatherCatV1.21B27,2013-10-03 07:44:00,
2013-10-03 02:49:00,77.0,74.5,29.86,SSE,151,0.0,1.0,92,0.00,,,0.00,WeatherCatV1.21B27,2013-10-03 07:49:00,
2013-10-03 02:54:00,77.0,74.5,29.86,ESE,121,0.0,3.0,92,0.00,,,0.00,WeatherCatV1.21B27,2013-10-03 07:54:00,
2013-10-03 03:00:00,77.0,74.5,29.86,East,98,1.0,6.0,92,0.00,,,0.00,WeatherCatV1.21B27,2013-10-03 08:00:00,
2013-10-03 03:05:00,77.0,74.5,29.86,ESE,117,1.0,2.0,92,0.00,,,0.00,WeatherCatV1.21B27,2013-10-03 08:05:00,
2013-10-03 03:10:00,77.1,74.6,29.86,East,83,0.0,0.0,92,0.00,,,0.00,WeatherCatV1.21B27,2013-10-03 08:10:00,
2013-10-03 03:15:00,77.1,74.6,29.86,West,261,0.0,2.0,92,0.00,,,0.00,WeatherCatV1.21B27,2013-10-03 08:15:00,
2013-10-03 03:20:00,77.1,74.6,29.86,SSE,155,0.0,0.0,92,0.00,,,0.00,WeatherCatV1.21B27,2013-10-03 08:20:00,
2013-10-03 03:25:00,77.1,74.6,29.86,SSE,155,0.0,1.0,92,0.00,,,0.00,WeatherCatV1.21B27,2013-10-03 08:25:00,
2013-10-03 03:30:00,77.1,74.6,29.86,South,182,1.0,2.0,92,0.00,,,0.00,WeatherCatV1.21B27,2013-10-03 08:30:00,
2013-10-03 03:35:00,77.1,74.6,29.86,South,191,0.0,1.0,92,0.00,,,0.00,WeatherCatV1.21B27,2013-10-03 08:35:00,
2013-10-03 03:40:00,77.0,74.5,29.86,NW,313,0.0,1.0,92,0.00,,,0.00,WeatherCatV1.21B27,2013-10-03 08:40:00,
2013-10-03 03:45:00,77.0,74.5,29.86,South,184,1.0,6.0,92,0.00,,,0.00,WeatherCatV1.21B27,2013-10-03 08:45:00,
2013-10-03 03:50:00,77.0,74.5,29.86,SW,215,1.0,2.0,92,0.00,,,0.00,WeatherCatV1.21B27,2013-10-03 08:50:00,
2013-10-03 03:55:00,76.9,74.4,29.86,ESE,118,1.0,1.0,92,0.00,,,0.00,WeatherCatV1.21B27,2013-10-03 08:55:00,
2013-10-03 04:00:00,76.9,74.7,29.85,SSE,165,0.0,0.0,93,0.00,,,0.00,WeatherCatV1.21B27,2013-10-03 09:00:00,
2013-10-03 04:05:00,76.9,74.7,29.85,SSE,149,0.0,0.0,93,0.00,,,0.00,WeatherCatV1.21B27,2013-10-03 09:05:00,
2013-10-03 04:10:00,76.9,74.7,29.85,South,190,0.0,0.0,93,0.00,,,0.00,WeatherCatV1.21B27,2013-10-03 09:10:00,
2013-10-03 04:15:00,76.8,74.6,29.84,SE,133,0.0,0.0,93,0.00,,,0.00,WeatherCatV1.21B27,2013-10-03 09:15:00,
2013-10-03 04:20:00,76.7,74.5,29.84,SSE,157,0.0,1.0,93,0.00,,,0.00,WeatherCatV1.21B27,2013-10-03 09:20:00,
2013-10-03 04:25:00,76.7,74.5,29.84,SSW,194,1.0,1.0,93,0.00,,,0.00,WeatherCatV1.21B27,2013-10-03 09:25:00,
2013-10-03 04:30:00,76.7,74.5,29.84,South,178,0.0,1.0,93,0.00,,,0.00,WeatherCatV1.21B27,2013-10-03 09:30:00,
2013-10-03 04:35:00,76.7,74.5,29.84,SSE,159,1.0,3.0,93,0.00,,,0.00,WeatherCatV1.21B27,2013-10-03 09:35:00,
2013-10-03 04:40:00,76.6,74.4,29.84,SSE,159,1.0,2.0,93,0.00,,,0.00,WeatherCatV1.21B27,2013-10-03 09:40:00,
2013-10-03 04:45:00,76.5,74.3,29.84,SSE,159,1.0,2.0,93,0.00,,,0.00,WeatherCatV1.21B27,2013-10-03 09:45:00,
2013-10-03 04:50:00,76.6,74.4,29.84,South,184,0.0,0.0,93,0.00,,,0.00,WeatherCatV1.21B27,2013-10-03 09:50:00,
2013-10-03 04:55:00,76.6,74.7,29.84,South,185,1.0,1.0,94,0.00,,,0.00,WeatherCatV1.21B27,2013-10-03 09:55:00,
2013-10-03 05:00:00,76.6,74.7,29.84,WNW,303,0.0,1.0,94,0.00,,,0.00,WeatherCatV1.21B27,2013-10-03 10:00:00,
2013-10-03 05:05:00,76.6,74.7,29.84,SSE,167,0.0,1.0,94,0.00,,,0.00,WeatherCatV1.21B27,2013-10-03 10:05:00,
2013-10-03 05:10:00,76.6,74.7,29.84,SE,134,0.0,1.0,94,0.00,,,0.00,WeatherCatV1.21B27,2013-10-03 10:10:00,
2013-10-03 05:15:00,76.6,74.7,29.84,South,190,0.0,1.0,94,0.00,,,0.00,WeatherCatV1.21B27,2013-10-03 10:15:00,
2013-10-03 05:20:00,76.6,74.7,29.84,SSW,199,1.0,2.0,94,0.00,,,0.00,WeatherCatV1.21B27,2013-10-03 10:20:00,
2013-10-03 05:25:00,76.5,74.6,29.84,SSW,194,0.0,1.0,94,0.00,,,0.00,WeatherCatV1.21B27,2013-10-03 10:25:00,
2013-10-03 05:31:00,76.5,74.6,29.84,SSW,194,0.0,0.0,94,0.00,,,0.00,WeatherCatV1.21B27,2013-10-03 10:31:00,
2013-10-03 05:36:00,76.5,74.6,29.85,SSW,195,0.0,2.0,94,0.00,,,0.00,WeatherCatV1.21B27,2013-10-03 10:36:00,
2013-10-03 05:41:00,76.4,74.5,29.85,SSE,155,0.0,2.0,94,0.00,,,0.00,WeatherCatV1.21B27,2013-10-03 10:41:00,
2013-10-03 05:46:00,76.4,74.5,29.85,SSE,163,0.0,0.0,94,0.00,,,0.00,WeatherCatV1.21B27,2013-10-03 10:46:00,
2013-10-03 05:51:00,76.3,74.4,29.85,SSW,194,1.0,3.0,94,0.00,,,0.00,WeatherCatV1.21B27,2013-10-03 10:51:00,
2013-10-03 05:56:00,76.3,74.4,29.85,SSW,213,0.0,1.0,94,0.00,,,0.00,WeatherCatV1.21B27,2013-10-03 10:56:00,
2013-10-03 06:01:00,76.3,74.4,29.85,SSW,212,0.0,0.0,94,0.00,,,0.00,WeatherCatV1.21B27,2013-10-03 11:01:00,
2013-10-03 06:06:00,76.3,74.4,29.85,SSW,209,0.0,0.0,94,0.00,,,0.00,WeatherCatV1.21B27,2013-10-03 11:06:00,
2013-10-03 06:11:00,76.3,74.4,29.86,WSW,239,0.0,2.0,94,0.00,,,0.00,WeatherCatV1.21B27,2013-10-03 11:11:00,
2013-10-03 06:16:00,76.2,74.3,29.86,SW,234,0.0,1.0,94,0.00,,,0.00,WeatherCatV1.21B27,2013-10-03 11:16:00,
2013-10-03 06:21:00,76.2,74.3,29.86,SW,234,1.0,2.0,94,0.00,,,0.00,WeatherCatV1.21B27,2013-10-03 11:21:00,
2013-10-03 06:26:00,76.2,74.3,29.85,South,191,1.0,1.0,94,0.00,,,0.00,WeatherCatV1.21B27,2013-10-03 11:26:00,
2013-10-03 06:31:00,76.1,74.2,29.85,SSE,151,1.0,1.0,94,0.00,,,0.00,WeatherCatV1.21B27,2013-10-03 11:31:00,
2013-10-03 06:36:00,76.1,74.2,29.85,SSE,167,0.0,0.0,94,0.00,,,0.00,WeatherCatV1.21B27,2013-10-03 11:36:00,
2013-10-03 06:41:00,76.1,73.9,29.86,South,171,2.0,2.0,93,0.00,,,0.00,WeatherCatV1.21B27,2013-10-03 11:41:00,
2013-10-03 06:46:00,76.1,74.2,29.86,South,171,0.0,1.0,94,0.00,,,0.00,WeatherCatV1.21B27,2013-10-03 11:46:00,
2013-10-03 06:51:00,76.1,73.9,29.86,SSE,167,0.0,1.0,93,0.00,,,0.00,WeatherCatV1.21B27,2013-10-03 11:51:00,
2013-10-03 06:56:00,76.0,73.8,29.86,SSE,167,0.0,2.0,93,0.00,,,0.00,WeatherCatV1.21B27,2013-10-03 11:56:00,
2013-10-03 07:01:00,76.0,73.8,29.86,SSE,168,0.0,0.0,93,0.00,,,0.00,WeatherCatV1.21B27,2013-10-03 12:01:00,
2013-10-03 07:06:00,76.0,73.8,29.86,South,172,1.0,1.0,93,0.00,,,0.00,WeatherCatV1.21B27,2013-10-03 12:06:00,
2013-10-03 07:11:00,76.0,73.8,29.86,SSW,202,0.0,0.0,93,0.00,,,0.00,WeatherCatV1.21B27,2013-10-03 12:11:00,
2013-10-03 07:16:00,76.0,73.8,29.86,SSW,202,0.0,0.0,93,0.00,,,0.00,WeatherCatV1.21B27,2013-10-03 12:16:00,
2013-10-03 07:21:00,75.9,73.7,29.86,SSW,202,0.0,1.0,93,0.00,,,0.00,WeatherCatV1.21B27,2013-10-03 12:21:00,
2013-10-03 07:26:00,76.0,73.8,29.86,SSW,202,0.0,1.0,93,0.00,,,0.00,WeatherCatV1.21B27,2013-10-03 12:26:00,
2013-10-03 07:31:00,75.9,73.7,29.86,SSW,202,0.0,0.0,93,0.00,,,0.00,WeatherCatV1.21B27,2013-10-03 12:31:00,
2013-10-03 07:36:00,75.9,73.7,29.86,WNW,296,0.0,1.0,93,0.00,,,0.00,WeatherCatV1.21B27,2013-10-03 12:36:00,
2013-10-03 07:41:00,75.9,73.7,29.86,ESE,116,0.0,0.0,93,0.00,,,0.00,WeatherCatV1.21B27,2013-10-03 12:41:00,
2013-10-03 07:46:00,75.9,73.7,29.86,SSE,167,1.0,1.0,93,0.00,,,0.00,WeatherCatV1.21B27,2013-10-03 12:46:00,
2013-10-03 07:51:00,75.9,74.0,29.86,SSW,197,0.0,1.0,94,0.00,,,0.00,WeatherCatV1.21B27,2013-10-03 12:51:00,
2013-10-03 07:56:00,75.8,73.6,29.86,ESE,105,0.0,0.0,93,0.00,,,0.00,WeatherCatV1.21B27,2013-10-03 12:56:00,
2013-10-03 08:02:00,75.8,73.9,29.86,SSE,157,0.0,2.0,94,0.00,,,0.00,WeatherCatV1.21B27,2013-10-03 13:02:00,
2013-10-03 08:07:00,75.8,73.9,29.86,South,180,0.0,2.0,94,0.00,,,0.00,WeatherCatV1.21B27,2013-10-03 13:07:00,
2013-10-03 08:12:00,75.8,73.9,29.87,SSE,157,0.0,2.0,94,0.00,,,0.00,WeatherCatV1.21B27,2013-10-03 13:12:00,
2013-10-03 08:17:00,75.8,73.9,29.87,SSE,157,0.0,0.0,94,0.00,,,0.00,WeatherCatV1.21B27,2013-10-03 13:17:00,
2013-10-03 08:22:00,75.9,74.0,29.87,SSE,157,0.0,1.0,94,0.00,,,0.00,WeatherCatV1.21B27,2013-10-03 13:22:00,
2013-10-03 08:27:00,76.0,73.8,29.87,WNW,302,0.0,1.0,93,0.00,,,0.00,WeatherCatV1.21B27,2013-10-03 13:27:00,
2013-10-03 08:32:00,76.2,74.0,29.88,SSW,197,0.0,1.0,93,0.00,,,0.00,WeatherCatV1.21B27,2013-10-03 13:32:00,
2013-10-03 08:37:00,76.3,74.1,29.88,SSW,194,0.0,4.0,93,0.00,,,0.00,WeatherCatV1.21B27,2013-10-03 13:37:00,
2013-10-03 08:42:00,76.3,73.8,29.88,SSW,200,0.0,1.0,92,0.00,,,0.00,WeatherCatV1.21B27,2013-10-03 13:42:00,
2013-10-03 08:47:00,76.4,73.9,29.88,South,188,0.0,2.0,92,0.00,,,0.00,WeatherCatV1.21B27,2013-10-03 13:47:00,
2013-10-03 08:52:00,76.5,74.0,29.88,SSW,202,0.0,1.0,92,0.00,,,0.00,WeatherCatV1.21B27,2013-10-03 13:52:00,
2013-10-03 08:57:00,76.8,74.3,29.88,South,190,1.0,1.0,92,0.00,,,0.00,WeatherCatV1.21B27,2013-10-03 13:57:00,
2013-10-03 09:02:00,77.1,74.3,29.88,SSW,207,2.0,4.0,91,0.00,,,0.00,WeatherCatV1.21B27,2013-10-03 14:02:00,
2013-10-03 09:07:00,77.2,73.7,29.89,SSW,192,0.0,5.0,89,0.00,,,0.00,WeatherCatV1.21B27,2013-10-03 14:07:00,
2013-10-03 09:12:00,77.2,73.7,29.89,South,188,0.0,1.0,89,0.00,,,0.00,WeatherCatV1.21B27,2013-10-03 14:12:00,
2013-10-03 09:17:00,77.2,73.7,29.89,SSW,211,2.0,4.0,89,0.00,,,0.00,WeatherCatV1.21B27,2013-10-03 14:17:00,
2013-10-03 09:22:00,77.4,73.6,29.89,South,186,0.0,1.0,88,0.00,,,0.00,WeatherCatV1.21B27,2013-10-03 14:22:00,
2013-10-03 09:27:00,77.6,73.8,29.89,SSE,159,0.0,3.0,88,0.00,,,0.00,WeatherCatV1.21B27,2013-10-03 14:27:00,
2013-10-03 09:32:00,77.6,73.8,29.89,South,182,0.0,1.0,88,0.00,,,0.00,WeatherCatV1.21B27,2013-10-03 14:32:00,
2013-10-03 09:37:00,77.7,73.8,29.89,South,171,0.0,1.0,88,0.00,,,0.00,WeatherCatV1.21B27,2013-10-03 14:37:00,
2013-10-03 09:42:00,77.9,73.7,29.90,South,172,0.0,4.0,87,0.00,,,0.00,WeatherCatV1.21B27,2013-10-03 14:42:00,
2013-10-03 09:47:00,78.2,73.3,29.89,SSE,148,1.0,3.0,85,0.00,,,0.00,WeatherCatV1.21B27,2013-10-03 14:47:00,
2013-10-03 09:52:00,78.7,73.8,29.90,NE,36,0.0,4.0,85,0.00,,,0.00,WeatherCatV1.21B27,2013-10-03 14:52:00,
2013-10-03 09:57:00,79.6,74.3,29.90,SSE,165,4.0,4.0,84,0.00,,,0.00,WeatherCatV1.21B27,2013-10-03 14:57:00,
2013-10-03 10:02:00,80.3,74.7,29.90,SSW,193,0.0,2.0,83,0.00,,,0.00,WeatherCatV1.21B27,2013-10-03 15:02:00,
2013-10-03 10:07:00,81.1,74.7,29.89,South,169,0.0,2.0,81,0.00,,,0.00,WeatherCatV1.21B27,2013-10-03 15:07:00,
2013-10-03 10:12:00,81.4,74.2,29.90,South,169,5.0,5.0,79,0.00,,,0.00,WeatherCatV1.21B27,2013-10-03 15:12:00,
2013-10-03 10:17:00,81.1,73.9,29.90,SSE,154,0.0,0.0,79,0.00,,,0.00,WeatherCatV1.21B27,2013-10-03 15:17:00,
2013-10-03 10:22:00,81.1,73.9,29.90,South,185,0.0,1.0,79,0.00,,,0.00,WeatherCatV1.21B27,2013-10-03 15:22:00,
2013-10-03 10:27:00,81.6,74.4,29.90,SSW,201,1.0,1.0,79,0.00,,,0.00,WeatherCatV1.21B27,2013-10-03 15:27:00,
2013-10-03 10:33:00,81.8,73.9,29.90,SE,128,5.0,5.0,77,0.00,,,0.00,WeatherCatV1.21B27,2013-10-03 15:33:00,
2013-10-03 10:38:00,81.9,73.6,29.90,WSW,252,1.0,3.0,76,0.00,,,0.00,WeatherCatV1.21B27,2013-10-03 15:38:00,
2013-10-03 10:43:00,82.2,74.2,29.89,South,189,5.0,5.0,77,0.00,,,0.00,WeatherCatV1.21B27,2013-10-03 15:43:00,
2013-10-03 10:48:00,82.7,74.7,29.90,SSW,208,0.0,2.0,77,0.00,,,0.00,WeatherCatV1.21B27,2013-10-03 15:48:00,
2013-10-03 10:53:00,83.2,74.0,29.89,South,179,1.0,5.0,74,0.00,,,0.00,WeatherCatV1.21B27,2013-10-03 15:53:00,
2013-10-03 10:58:00,83.7,74.9,29.89,SSW,200,0.0,3.0,75,0.00,,,0.00,WeatherCatV1.21B27,2013-10-03 15:58:00,
2013-10-03 11:03:00,84.0,74.8,29.89,SSE,152,1.0,2.0,74,0.00,,,0.00,WeatherCatV1.21B27,2013-10-03 16:03:00,
2013-10-03 11:08:00,83.9,74.3,29.89,SSW,195,0.0,1.0,73,0.00,,,0.00,WeatherCatV1.21B27,2013-10-03 16:08:00,
2013-10-03 11:13:00,83.8,74.2,29.89,SSE,148,1.0,2.0,73,0.00,,,0.00,WeatherCatV1.21B27,2013-10-03 16:13:00,
2013-10-03 11:18:00,83.7,73.7,29.90,SE,141,1.0,4.0,72,0.00,,,0.00,WeatherCatV1.21B27,2013-10-03 16:18:00,
2013-10-03 11:23:00,83.6,73.6,29.90,South,180,0.0,1.0,72,0.00,,,0.00,WeatherCatV1.21B27,2013-10-03 16:23:00,
2013-10-03 11:28:00,84.1,73.7,29.90,South,179,0.0,4.0,71,0.00,,,0.00,WeatherCatV1.21B27,2013-10-03 16:28:00,
2013-10-03 11:33:00,84.5,73.2,29.90,SSW,205,0.0,5.0,69,0.00,,,0.00,WeatherCatV1.21B27,2013-10-03 16:33:00,
2013-10-03 11:38:00,84.7,73.8,29.90,South,191,1.0,3.0,70,0.00,,,0.00,WeatherCatV1.21B27,2013-10-03 16:38:00,
2013-10-03 11:43:00,84.6,73.7,29.90,SW,217,1.0,2.0,70,0.00,,,0.00,WeatherCatV1.21B27,2013-10-03 16:43:00,
2013-10-03 11:48:00,84.4,73.1,29.89,SSW,196,4.0,5.0,69,0.00,,,0.00,WeatherCatV1.21B27,2013-10-03 16:48:00,
2013-10-03 11:53:00,84.7,73.4,29.89,SW,216,3.0,4.0,69,0.00,,,0.00,WeatherCatV1.21B27,2013-10-03 16:53:00,
2013-10-03 11:58:00,84.6,73.3,29.89,SSW,192,2.0,3.0,69,0.00,,,0.00,WeatherCatV1.21B27,2013-10-03 16:58:00,
2013-10-03 12:03:00,84.2,73.3,29.89,SE,135,1.0,2.0,70,0.00,,,0.00,WeatherCatV1.21B27,2013-10-03 17:03:00,
2013-10-03 12:08:00,84.0,73.1,29.89,SSW,211,0.0,2.0,70,0.00,,,0.00,WeatherCatV1.21B27,2013-10-03 17:08:00,
2013-10-03 12:13:00,84.2,73.8,29.88,SW,234,5.0,5.0,71,0.00,,,0.00,WeatherCatV1.21B27,2013-10-03 17:13:00,
2013-10-03 12:18:00,84.5,73.6,29.88,South,190,0.0,2.0,70,0.00,,,0.00,WeatherCatV1.21B27,2013-10-03 17:18:00,
2013-10-03 12:23:00,84.8,73.9,29.88,SSW,207,2.0,3.0,70,0.00,,,0.00,WeatherCatV1.21B27,2013-10-03 17:23:00,
2013-10-03 12:28:00,85.5,73.7,29.88,ENE,58,0.0,5.0,68,0.00,,,0.00,WeatherCatV1.21B27,2013-10-03 17:28:00,
2013-10-03 12:33:00,86.5,74.2,29.87,WNW,295,0.0,2.0,67,0.00,,,0.00,WeatherCatV1.21B27,2013-10-03 17:33:00,
2013-10-03 12:38:00,87.0,74.2,29.87,North,11,2.0,2.0,66,0.00,,,0.00,WeatherCatV1.21B27,2013-10-03 17:38:00,
2013-10-03 12:43:00,87.3,74.5,29.87,SSE,155,0.0,1.0,66,0.00,,,0.00,WeatherCatV1.21B27,2013-10-03 17:43:00,
2013-10-03 12:48:00,87.1,73.9,29.87,NE,55,1.0,3.0,65,0.00,,,0.00,WeatherCatV1.21B27,2013-10-03 17:48:00,
2013-10-03 12:53:00,86.7,73.5,29.87,SSW,202,0.0,4.0,65,0.00,,,0.00,WeatherCatV1.21B27,2013-10-03 17:53:00,
2013-10-03 12:58:00,86.2,73.5,29.87,SE,140,0.0,2.0,66,0.00,,,0.00,WeatherCatV1.21B27,2013-10-03 17:58:00,
2013-10-03 13:04:00,86.5,73.8,29.86,SSW,200,0.0,4.0,66,0.00,,,0.00,WeatherCatV1.21B27,2013-10-03 18:04:00,
2013-10-03 13:09:00,86.9,73.2,29.86,SSE,167,2.0,6.0,64,0.00,,,0.00,WeatherCatV1.21B27,2013-10-03 18:09:00,
2013-10-03 13:14:00,86.9,73.7,29.86,SW,214,2.0,2.0,65,0.00,,,0.00,WeatherCatV1.21B27,2013-10-03 18:14:00,
2013-10-03 13:19:00,86.8,73.6,29.86,SE,136,1.0,4.0,65,0.00,,,0.00,WeatherCatV1.21B27,2013-10-03 18:19:00,
2013-10-03 13:24:00,87.2,74.0,29.86,NW,317,2.0,5.0,65,0.00,,,0.00,WeatherCatV1.21B27,2013-10-03 18:24:00,
2013-10-03 13:29:00,87.8,74.1,29.85,South,185,0.0,3.0,64,0.00,,,0.00,WeatherCatV1.21B27,2013-10-03 18:29:00,
2013-10-03 13:34:00,87.9,74.2,29.86,SSW,197,0.0,1.0,64,0.00,,,0.00,WeatherCatV1.21B27,2013-10-03 18:34:00,
2013-10-03 13:39:00,87.8,74.1,29.85,SSW,213,0.0,2.0,64,0.00,,,0.00,WeatherCatV1.21B27,2013-10-03 18:39:00,
2013-10-03 13:44:00,87.5,73.3,29.85,SW,217,0.0,4.0,63,0.00,,,0.00,WeatherCatV1.21B27,2013-10-03 18:44:00,
2013-10-03 13:49:00,87.4,74.2,29.85,ESE,113,0.0,7.0,65,0.00,,,0.00,WeatherCatV1.21B27,2013-10-03 18:49:00,
2013-10-03 13:54:00,87.9,73.7,29.84,WSW,246,1.0,2.0,63,0.00,,,0.00,WeatherCatV1.21B27,2013-10-03 18:54:00,
2013-10-03 13:59:00,88.2,74.0,29.84,South,175,0.0,2.0,63,0.00,,,0.00,WeatherCatV1.21B27,2013-10-03 18:59:00,
2013-10-03 14:04:00,88.5,73.3,29.84,SW,233,0.0,2.0,61,0.00,,,0.00,WeatherCatV1.21B27,2013-10-03 19:04:00,
2013-10-03 14:09:00,88.5,73.3,29.84,ESE,108,0.0,5.0,61,0.00,,,0.00,WeatherCatV1.21B27,2013-10-03 19:09:00,
2013-10-03 14:14:00,88.2,73.5,29.84,SSW,193,0.0,2.0,62,0.00,,,0.00,WeatherCatV1.21B27,2013-10-03 19:14:00,
2013-10-03 14:20:00,87.9,73.2,29.84,East,80,3.0,5.0,62,0.00,,,0.00,WeatherCatV1.21B27,2013-10-03 19:20:00,
2013-10-03 14:25:00,87.5,72.4,29.83,NE,51,2.0,5.0,61,0.00,,,0.00,WeatherCatV1.21B27,2013-10-03 19:25:00,
2013-10-03 14:30:00,87.8,72.6,29.83,SSE,152,1.0,1.0,61,0.00,,,0.00,WeatherCatV1.21B27,2013-10-03 19:30:00,
2013-10-03 14:35:00,88.0,73.3,29.83,South,177,1.0,4.0,62,0.00,,,0.00,WeatherCatV1.21B27,2013-10-03 19:35:00,
2013-10-03 14:40:00,88.5,73.3,29.82,South,171,1.0,4.0,61,0.00,,,0.00,WeatherCatV1.21B27,2013-10-03 19:40:00,
2013-10-03 14:45:00,88.8,73.6,29.82,SSE,161,0.0,2.0,61,0.00,,,0.00,WeatherCatV1.21B27,2013-10-03 19:45:00,
2013-10-03 14:50:00,88.8,72.6,29.83,ESE,122,0.0,2.0,59,0.00,,,0.00,WeatherCatV1.21B27,2013-10-03 19:50:00,
2013-10-03 14:55:00,88.4,72.2,29.82,SE,141,4.0,8.0,59,0.00,,,0.00,WeatherCatV1.21B27,2013-10-03 19:55:00,
2013-10-03 15:00:00,88.6,72.9,29.82,NW,313,4.0,6.0,60,0.00,,,0.00,WeatherCatV1.21B27,2013-10-03 20:00:00,
2013-10-03 15:05:00,88.9,72.7,29.82,East,92,1.0,4.0,59,0.00,,,0.00,WeatherCatV1.21B27,2013-10-03 20:05:00,
2013-10-03 15:10:00,89.2,72.4,29.82,SSW,205,1.0,1.0,58,0.00,,,0.00,WeatherCatV1.21B27,2013-10-03 20:10:00,
2013-10-03 15:15:00,89.0,71.2,29.82,South,178,0.0,5.0,56,0.00,,,0.00,WeatherCatV1.21B27,2013-10-03 20:15:00,
2013-10-03 15:20:00,88.9,72.2,29.81,South,189,0.0,4.0,58,0.00,,,0.00,WeatherCatV1.21B27,2013-10-03 20:20:00,
2013-10-03 15:25:00,89.3,73.1,29.82,South,173,0.0,4.0,59,0.00,,,0.00,WeatherCatV1.21B27,2013-10-03 20:25:00,
2013-10-03 15:30:00,89.4,72.6,29.81,SSW,205,5.0,5.0,58,0.00,,,0.00,WeatherCatV1.21B27,2013-10-03 20:30:00,
2013-10-03 15:35:00,89.3,72.5,29.81,South,185,0.0,3.0,58,0.00,,,0.00,WeatherCatV1.21B27,2013-10-03 20:35:00,
2013-10-03 15:40:00,89.5,71.7,29.81,South,188,3.0,4.0,56,0.00,,,0.00,WeatherCatV1.21B27,2013-10-03 20:40:00,
2013-10-03 15:45:00,89.6,72.3,29.81,South,171,1.0,2.0,57,0.00,,,0.00,WeatherCatV1.21B27,2013-10-03 20:45:00,
2013-10-03 15:50:00,89.3,72.0,29.81,South,189,0.0,8.0,57,0.00,,,0.00,WeatherCatV1.21B27,2013-10-03 20:50:00,
2013-10-03 15:55:00,89.0,72.3,29.81,South,188,3.0,4.0,58,0.00,,,0.00,WeatherCatV1.21B27,2013-10-03 20:55:00,
2013-10-03 16:00:00,88.7,72.5,29.80,South,171,0.0,2.0,59,0.00,,,0.00,WeatherCatV1.21B27,2013-10-03 21:00:00,
2013-10-03 16:05:00,88.6,72.4,29.80,SSE,157,2.0,2.0,59,0.00,,,0.00,WeatherCatV1.21B27,2013-10-03 21:05:00,
2013-10-03 16:10:00,88.7,72.0,29.80,South,180,1.0,2.0,58,0.00,,,0.00,WeatherCatV1.21B27,2013-10-03 21:10:00,
2013-10-03 16:15:00,88.8,72.6,29.80,ESE,121,1.0,1.0,59,0.00,,,0.00,WeatherCatV1.21B27,2013-10-03 21:15:00,
2013-10-03 16:20:00,89.1,72.4,29.80,South,187,2.0,2.0,58,0.00,,,0.00,WeatherCatV1.21B27,2013-10-03 21:20:00,
2013-10-03 16:25:00,89.5,72.7,29.80,SSW,200,1.0,3.0,58,0.00,,,0.00,WeatherCatV1.21B27,2013-10-03 21:25:00,
2013-10-03 16:30:00,89.1,71.8,29.80,SSW,209,0.0,3.0,57,0.00,,,0.00,WeatherCatV1.21B27,2013-10-03 21:30:00,
2013-10-03 16:35:00,88.4,71.7,29.80,SW,233,0.0,3.0,58,0.00,,,0.00,WeatherCatV1.21B27,2013-10-03 21:35:00,
2013-10-03 16:40:00,88.1,71.9,29.80,SW,233,0.0,0.0,59,0.00,,,0.00,WeatherCatV1.21B27,2013-10-03 21:40:00,
2013-10-03 16:45:00,88.0,72.3,29.79,SE,140,1.0,3.0,60,0.00,,,0.00,WeatherCatV1.21B27,2013-10-03 21:45:00,
2013-10-03 16:51:00,87.9,71.7,29.79,SW,220,0.0,3.0,59,0.00,,,0.00,WeatherCatV1.21B27,2013-10-03 21:51:00,
2013-10-03 16:56:00,87.9,71.7,29.79,SSE,167,0.0,3.0,59,0.00,,,0.00,WeatherCatV1.21B27,2013-10-03 21:56:00,
2013-10-03 17:01:00,88.1,71.4,29.79,SSE,166,0.0,4.0,58,0.00,,,0.00,WeatherCatV1.21B27,2013-10-03 22:01:00,
2013-10-03 17:06:00,88.4,71.7,29.79,SE,134,0.0,2.0,58,0.00,,,0.00,WeatherCatV1.21B27,2013-10-03 22:06:00,
2013-10-03 17:11:00,88.4,71.7,29.79,South,181,1.0,4.0,58,0.00,,,0.00,WeatherCatV1.21B27,2013-10-03 22:11:00,
2013-10-03 17:16:00,88.3,71.1,29.79,SW,215,0.0,2.0,57,0.00,,,0.00,WeatherCatV1.21B27,2013-10-03 22:16:00,
2013-10-03 17:21:00,88.2,71.0,29.79,SSW,207,0.0,3.0,57,0.00,,,0.00,WeatherCatV1.21B27,2013-10-03 22:21:00,
2013-10-03 17:26:00,88.1,70.9,29.79,SSE,159,1.0,6.0,57,0.00,,,0.00,WeatherCatV1.21B27,2013-10-03 22:26:00,
2013-10-03 17:31:00,87.7,71.6,29.78,SSW,204,0.0,0.0,59,0.00,,,0.00,WeatherCatV1.21B27,2013-10-03 22:31:00,
2013-10-03 17:36:00,87.5,70.9,29.79,South,188,3.0,5.0,58,0.00,,,0.00,WeatherCatV1.21B27,2013-10-03 22:36:00,
2013-10-03 17:41:00,87.5,71.4,29.79,SSE,166,1.0,3.0,59,0.00,,,0.00,WeatherCatV1.21B27,2013-10-03 22:41:00,
2013-10-03 17:46:00,87.5,71.4,29.79,South,169,1.0,4.0,59,0.00,,,0.00,WeatherCatV1.21B27,2013-10-03 22:46:00,
2013-10-03 17:51:00,87.3,71.7,29.78,ENE,57,1.0,3.0,60,0.00,,,0.00,WeatherCatV1.21B27,2013-10-03 22:51:00,
2013-10-03 17:56:00,87.1,71.5,29.78,South,176,0.0,4.0,60,0.00,,,0.00,WeatherCatV1.21B27,2013-10-03 22:56:00,
2013-10-03 18:01:00,86.9,71.3,29.79,SSW,209,0.0,3.0,60,0.00,,,0.00,WeatherCatV1.21B27,2013-10-03 23:01:00,
2013-10-03 18:06:00,86.7,71.1,29.78,South,173,0.0,4.0,60,0.00,,,0.00,WeatherCatV1.21B27,2013-10-03 23:06:00,
2013-10-03 18:11:00,86.5,70.9,29.78,South,191,0.0,1.0,60,0.00,,,0.00,WeatherCatV1.21B27,2013-10-03 23:11:00,
2013-10-03 18:16:00,86.4,70.8,29.79,South,170,0.0,5.0,60,0.00,,,0.00,WeatherCatV1.21B27,2013-10-03 23:16:00,
2013-10-03 18:21:00,86.3,70.7,29.79,South,170,0.0,1.0,60,0.00,,,0.00,WeatherCatV1.21B27,2013-10-03 23:21:00,
2013-10-03 18:26:00,86.4,70.8,29.79,SSE,161,0.0,1.0,60,0.00,,,0.00,WeatherCatV1.21B27,2013-10-03 23:26:00,
2013-10-03 18:31:00,86.4,70.3,29.79,SE,146,0.0,5.0,59,0.00,,,0.00,WeatherCatV1.21B27,2013-10-03 23:31:00,
2013-10-03 18:36:00,86.4,70.8,29.78,SE,146,0.0,2.0,60,0.00,,,0.00,WeatherCatV1.21B27,2013-10-03 23:36:00,
2013-10-03 18:41:00,86.4,70.8,29.79,SSE,160,0.0,1.0,60,0.00,,,0.00,WeatherCatV1.21B27,2013-10-03 23:41:00,
2013-10-03 18:46:00,86.3,70.7,29.78,South,173,0.0,2.0,60,0.00,,,0.00,WeatherCatV1.21B27,2013-10-03 23:46:00,
2013-10-03 18:51:00,86.2,70.7,29.78,SSE,163,2.0,5.0,60,0.00,,,0.00,WeatherCatV1.21B27,2013-10-03 23:51:00,
2013-10-03 18:56:00,86.2,71.1,29.79,East,96,1.0,4.0,61,0.00,,,0.00,WeatherCatV1.21B27,2013-10-03 23:56:00,
2013-10-03 19:01:00,86.1,71.5,29.78,SE,136,1.0,4.0,62,0.00,,,0.00,WeatherCatV1.21B27,2013-10-04 00:01:00,
2013-10-03 19:06:00,85.8,71.7,29.79,ESE,109,1.0,1.0,63,0.00,,,0.00,WeatherCatV1.21B27,2013-10-04 00:06:00,
2013-10-03 19:11:00,85.5,71.4,29.79,SSE,153,0.0,1.0,63,0.00,,,0.00,WeatherCatV1.21B27,2013-10-04 00:11:00,
2013-10-03 19:17:00,85.4,71.8,29.79,ESE,107,4.0,5.0,64,0.00,,,0.00,WeatherCatV1.21B27,2013-10-04 00:17:00,
2013-10-03 19:22:00,85.1,71.5,29.79,SSE,150,0.0,2.0,64,0.00,,,0.00,WeatherCatV1.21B27,2013-10-04 00:22:00,
2013-10-03 19:27:00,85.0,71.4,29.79,South,175,1.0,5.0,64,0.00,,,0.00,WeatherCatV1.21B27,2013-10-04 00:27:00,
2013-10-03 19:32:00,84.8,71.2,29.79,East,95,1.0,12.0,64,0.00,,,0.00,WeatherCatV1.21B27,2013-10-04 00:32:00,
2013-10-03 19:37:00,84.7,71.6,29.79,ESE,111,1.0,1.0,65,0.00,,,0.00,WeatherCatV1.21B27,2013-10-04 00:37:00,
2013-10-03 19:42:00,84.5,71.4,29.80,East,94,0.0,4.0,65,0.00,,,0.00,WeatherCatV1.21B27,2013-10-04 00:42:00,
2013-10-03 19:47:00,84.4,71.3,29.80,SE,128,0.0,5.0,65,0.00,,,0.00,WeatherCatV1.21B27,2013-10-04 00:47:00,
2013-10-03 19:52:00,84.3,71.7,29.80,ESE,106,0.0,1.0,66,0.00,,,0.00,WeatherCatV1.21B27,2013-10-04 00:52:00,
2013-10-03 19:57:00,84.1,71.5,29.80,SE,146,0.0,1.0,66,0.00,,,0.00,WeatherCatV1.21B27,2013-10-04 00:57:00,
2013-10-03 20:02:00,83.9,71.3,29.80,ESE,123,1.0,3.0,66,0.00,,,0.00,WeatherCatV1.21B27,2013-10-04 01:02:00,
2013-10-03 20:07:00,83.7,71.1,29.80,ESE,113,1.0,4.0,66,0.00,,,0.00,WeatherCatV1.21B27,2013-10-04 01:07:00,
2013-10-03 20:12:00,83.6,71.4,29.80,South,172,0.0,1.0,67,0.00,,,0.00,WeatherCatV1.21B27,2013-10-04 01:12:00,
2013-10-03 20:17:00,83.3,71.2,29.80,ESE,118,0.0,2.0,67,0.00,,,0.00,WeatherCatV1.21B27,2013-10-04 01:17:00,
2013-10-03 20:22:00,83.1,71.4,29.81,SSE,155,0.0,4.0,68,0.00,,,0.00,WeatherCatV1.21B27,2013-10-04 01:22:00,
2013-10-03 20:27:00,82.8,71.6,29.81,ESE,117,2.0,2.0,69,0.00,,,0.00,WeatherCatV1.21B27,2013-10-04 01:27:00,
2013-10-03 20:32:00,82.7,71.5,29.81,SE,141,0.0,1.0,69,0.00,,,0.00,WeatherCatV1.21B27,2013-10-04 01:32:00,
2013-10-03 20:37:00,82.4,71.2,29.81,SE,144,1.0,2.0,69,0.00,,,0.00,WeatherCatV1.21B27,2013-10-04 01:37:00,
2013-10-03 20:42:00,82.3,71.5,29.82,ESE,123,2.0,4.0,70,0.00,,,0.00,WeatherCatV1.21B27,2013-10-04 01:42:00,
2013-10-03 20:47:00,82.1,71.3,29.82,South,181,0.0,0.0,70,0.00,,,0.00,WeatherCatV1.21B27,2013-10-04 01:47:00,
2013-10-03 20:52:00,81.9,71.6,29.82,SE,142,0.0,1.0,71,0.00,,,0.00,WeatherCatV1.21B27,2013-10-04 01:52:00,
2013-10-03 20:57:00,81.6,71.3,29.82,SSE,161,0.0,2.0,71,0.00,,,0.00,WeatherCatV1.21B27,2013-10-04 01:57:00,
2013-10-03 21:02:00,81.4,71.5,29.82,South,169,0.0,1.0,72,0.00,,,0.00,WeatherCatV1.21B27,2013-10-04 02:02:00,
2013-10-03 21:07:00,81.1,71.2,29.82,SE,126,0.0,1.0,72,0.00,,,0.00,WeatherCatV1.21B27,2013-10-04 02:07:00,
2013-10-03 21:12:00,81.0,71.1,29.83,SE,140,0.0,7.0,72,0.00,,,0.00,WeatherCatV1.21B27,2013-10-04 02:12:00,
2013-10-03 21:17:00,80.9,71.0,29.83,SSE,156,0.0,2.0,72,0.00,,,0.00,WeatherCatV1.21B27,2013-10-04 02:17:00,
2013-10-03 21:22:00,80.7,70.8,29.83,ESE,117,1.0,2.0,72,0.00,,,0.00,WeatherCatV1.21B27,2013-10-04 02:22:00,
2013-10-03 21:27:00,80.5,70.6,29.83,WSW,253,0.0,5.0,72,0.00,,,0.00,WeatherCatV1.21B27,2013-10-04 02:27:00,
2013-10-03 21:32:00,80.2,70.3,29.83,SSE,148,0.0,2.0,72,0.00,,,0.00,WeatherCatV1.21B27,2013-10-04 02:32:00,
2013-10-03 21:37:00,80.1,70.6,29.84,SE,134,0.0,1.0,73,0.00,,,0.00,WeatherCatV1.21B27,2013-10-04 02:37:00,
2013-10-03 21:42:00,79.9,70.4,29.84,West,267,0.0,1.0,73,0.00,,,0.00,WeatherCatV1.21B27,2013-10-04 02:42:00,
2013-10-03 21:48:00,79.7,70.3,29.84,SSW,212,0.0,1.0,73,0.00,,,0.00,WeatherCatV1.21B27,2013-10-04 02:48:00,
2013-10-03 21:53:00,79.5,70.1,29.84,South,180,2.0,2.0,73,0.00,,,0.00,WeatherCatV1.21B27,2013-10-04 02:53:00,
2013-10-03 21:58:00,79.4,70.0,29.84,SSE,157,0.0,2.0,73,0.00,,,0.00,WeatherCatV1.21B27,2013-10-04 02:58:00,
2013-10-03 22:03:00,79.2,70.2,29.84,SSE,163,0.0,4.0,74,0.00,,,0.00,WeatherCatV1.21B27,2013-10-04 03:03:00,
2013-10-03 22:08:00,79.0,70.4,29.85,ESE,119,0.0,1.0,75,0.00,,,0.00,WeatherCatV1.21B27,2013-10-04 03:08:00,
2013-10-03 22:13:00,78.8,70.2,29.85,NE,54,0.0,2.0,75,0.00,,,0.00,WeatherCatV1.21B27,2013-10-04 03:13:00,
2013-10-03 22:18:00,78.6,70.0,29.85,SSE,150,0.0,4.0,75,0.00,,,0.00,WeatherCatV1.21B27,2013-10-04 03:18:00,
2013-10-03 22:23:00,78.5,70.3,29.85,South,184,0.0,2.0,76,0.00,,,0.00,WeatherCatV1.21B27,2013-10-04 03:23:00,
2013-10-03 22:28:00,78.4,70.2,29.85,SSW,193,0.0,1.0,76,0.00,,,0.00,WeatherCatV1.21B27,2013-10-04 03:28:00,
2013-10-03 22:33:00,78.3,70.1,29.85,SE,146,0.0,4.0,76,0.00,,,0.00,WeatherCatV1.21B27,2013-10-04 03:33:00,
2013-10-03 22:38:00,78.1,70.3,29.85,South,176,1.0,1.0,77,0.00,,,0.00,WeatherCatV1.21B27,2013-10-04 03:38:00,
2013-10-03 22:43:00,78.0,70.2,29.85,SE,134,0.0,1.0,77,0.00,,,0.00,WeatherCatV1.21B27,2013-10-04 03:43:00,
2013-10-03 22:48:00,77.8,70.4,29.86,SE,134,0.0,1.0,78,0.00,,,0.00,WeatherCatV1.21B27,2013-10-04 03:48:00,
2013-10-03 22:53:00,77.6,70.2,29.86,SE,136,0.0,2.0,78,0.00,,,0.00,WeatherCatV1.21B27,2013-10-04 03:53:00,
2013-10-03 22:59:00,77.5,70.1,29.86,SE,136,0.0,0.0,78,0.00,,,0.00,WeatherCatV1.21B27,2013-10-04 03:59:00,
2013-10-03 23:32:00,76.3,70.4,29.86,SSW,203,0.0,2.0,82,0.00,,,0.00,WeatherCatV1.21B27,2013-10-04 04:32:00,
2013-10-03 23:35:00,76.2,70.3,29.85,SSW,195,0.0,0.0,82,0.00,,,0.00,WeatherCatV1.21B27,2013-10-04 04:35:00,
2013-10-03 23:40:00,76.0,70.1,29.86,SSW,212,0.0,1.0,82,0.00,,,0.00,WeatherCatV1.21B27,2013-10-04 04:40:00,
2013-10-03 23:43:00,75.9,70.3,29.86,SSW,212,0.0,1.0,83,0.00,,,0.00,WeatherCatV1.21B27,2013-10-04 04:43:00,
2013-10-03 23:46:00,75.8,70.2,29.85,SSW,212,0.0,1.0,83,0.00,,,0.00,WeatherCatV1.21B27,2013-10-04 04:46:00,
2013-10-03 23:48:00,75.7,70.5,29.86,SSW,212,0.0,0.0,84,0.00,,,0.00,WeatherCatV1.21B27,2013-10-04 04:48:00,
2013-10-03 23:52:00,75.5,70.3,29.86,SSW,212,0.0,1.0,84,0.00,,,0.00,WeatherCatV1.21B27,2013-10-04 04:52:00,
2013-10-03 23:57:00,75.4,70.6,29.86,SSW,212,0.0,0.0,85,0.00,,,0.00,WeatherCatV1.21B27,2013-10-04 04:57:00,